This demonstration page uses our WeatherBlox Daily Observations layout. Learn more.

Left ArrowRight Arrow

38.88101, -77.10428

Hourly Observations for August 14, 2022

Temp ( °F °C ) Dew Point ( °F °C ) Humidity (%) Winds ( mph kmh ) Pressure ( in mb ) Visibility ( mi km ) Precip ( " mm )
12:52 am 00:52 Cloudy 71 21.7 56 13.3 59 59 SSW 6 9 30.09 1019 10 16 0.00 0.00
1:52 am 01:52 Cloudy 73 22.8 55 12.8 53 53 S 3 6 30.08 1019 10 16 0.00 0.00
2:52 am 02:52 Cloudy 71 21.7 56 13.3 59 59 SW 5 7 30.06 1018 10 16 0.00 0.00
3:52 am 03:52 Cloudy 71 21.7 55 12.8 57 57 S 6 9 30.05 1018 10 16 0.00 0.00
4:52 am 04:52 Cloudy 71 21.7 55 12.8 57 57 SSW 5 7 30.05 1018 10 16 0.00 0.00
5:52 am 05:52 Cloudy 71 21.7 57 13.9 61 61 SSW 6 9 30.05 1018 10 16 0.00 0.00
6:52 am 06:52 Mostly Cloudy 71 21.7 55 12.8 57 57 S 3 6 30.06 1018 10 16 0.00 0.00
7:52 am 07:52 Mostly Cloudy 70 21.1 55 12.8 59 59 SSW 3 6 30.07 1018 10 16 0.00 0.00
8:52 am 08:52 Mostly Cloudy 74 23.3 61 16.1 64 64 S 6 9 30.07 1018 10 16 0.00 0.00
9:52 am 09:52 Partly Cloudy 76 24.4 61 16.1 60 60 S 10 17 30.06 1018 10 16 0.00 0.00
10:52 am 10:52 Mostly Cloudy 79 26.1 61 16.1 54 54 S 9 15 30.06 1018 10 16 0.00 0.00
11:52 am 11:52 Partly Cloudy 80 26.7 55 12.8 42 42 S 12 19 30.05 1018 10 16 0.00 0.00
12:52 pm 12:52 Partly Cloudy 82 27.8 54 12.2 38 38 S 10 17 30.04 1017 10 16 0.00 0.00
1:52 pm 13:52 Mostly Cloudy 83 28.3 56 13.3 40 40 SSE 10 17 30.03 1017 10 16 0.00 0.00
2:52 pm 14:52 Mostly Cloudy 83 28.3 55 12.8 38 38 S 10 17 30.02 1017 9 14 0.00 0.00
3:52 pm 15:52 Mostly Cloudy 80 26.7 55 12.8 42 42 S 13 20 30.01 1016 10 16 0.00 0.00
4:52 pm 16:52 Cloudy 79 26.1 57 13.9 47 47 SSW 10 17 30.01 1016 10 16 0.00 0.00
5:52 pm 17:52 Cloudy 79 26.1 57 13.9 47 47 SSW 8 13 30.01 1016 10 16 0.00 0.00
6:52 pm 18:52 Cloudy with Light Rain 74 23.3 60 15.6 62 62 SW 10 17 30.01 1016 10 16 0.01 0.13
7:52 pm 19:52 Cloudy with Light Rain 72 22.2 62 16.7 71 71 W 7 11 30.02 1017 10 16 0.01 0.13
8:52 pm 20:52 Cloudy 72 22.2 62 16.7 71 71 SE 3 6 30.01 1016 10 16 0.01 0.25
9:52 pm 21:52 Cloudy with Light Rain 72 22.2 64 17.8 76 76 SW 3 6 30.02 1017 10 16 0.01 0.13
10:52 pm 22:52 Cloudy with Light Rain 71 21.7 65 18.3 81 81 NNW 6 9 30.03 1017 9 14 0.01 0.25
11:52 pm 23:52 Cloudy with Light Rain 70 21.1 64 17.8 81 81 Calm 30.04 1017 7 11 0.06 1.52

Powered by AerisWeather